Regional Weather Roundup
Issued by NWS State College, PA

Home | Current Version | Previous Version | Text Only | Print | Product List | Glossary On
Versions: 1 2 3 4 5 6 7 8 9 10 11 12 13 14 15 16 17 18 19 20 21 22 23 24 25 26 27 28 29 30 31 32 33 34 35 36 37 38 39 40 41 42 43 44 45 46 47 48 49 50
000
ASUS41 KCTP 221910
RWRCTP

REGIONAL WEATHER ROUNDUP
NATIONAL WEATHER SERVICE STATE COLLEGE PA
300 PM EDT TUE APR 22 2014

Note: "fair" indicates few or no clouds below 12,000 feet with no
significant weather and/or obstructions to visibility.

* = STATION THAT DOES NOT REPORT PRECIPITATION /E.G. RAIN...SNOW...ETC/
    THUNDER OR FOG.

PAZ002>004-007>009-013>016-020>023-029>032-222000-
WESTERN PENNSYLVANIA

CITY           SKY/WX    TMP DP  RH WIND       PRES   REMARKS
ERIE           CLOUDY    44  37  76 W9        29.73R
MEADVILLE      NOT AVBL
FRANKLIN*      CLOUDY    52  43  71 NW13G21   29.69R
NEW CASTLE     CLOUDY    52  49  89 NW13      29.70R
BEAVER COUNTY  CLOUDY    57  54  88 NW15G24   29.67R
BUTLER*        PTSUNNY   57  54  88 NW10      29.67R
PITTSBURGH INT TSTM      60  49  66 SW14G30   29.63F
PITTSBURGH     MOSUNNY   71  49  45 W13G20    29.61F
INDIANA*       PTSUNNY   64  57  77 W13       29.62F
LATROBE        PTSUNNY   66  57  72 SW18G30   29.64F
WASHINGTON CO* PTSUNNY   70  50  49 W16       29.66F
$$

PAZ004>006-010>012-017>019-024>028-033>037-041-042-045-046-049>053-222000-
CENTRAL PENNSYLVANIA

CITY           SKY/WX    TMP DP  RH WIND       PRES   REMARKS
BRADFORD       PTSUNNY   58  46  64 W14       29.60S
DUBOIS         PTSUNNY   57  54  89 W8        29.62F
CLEARFIELD     HVY RAIN  53  48  83 W9        29.63R
JOHNSTOWN      CLOUDY    59  53  80 W14G20    29.64F
ALTOONA        PTSUNNY   64  54  69 W13       29.63F
STATE COLLEGE  CLOUDY    66  52  59 SW9       29.61F
WILLIAMSPORT   CLOUDY    56  47  71 SE8       29.59F
SELINSGROVE    CLOUDY    62  51  67 S7        29.60F
FT INDIANTOWN  CLOUDY    58  57  99 VRB3      29.62F
CAPITAL CITY   CLOUDY    62  54  74 CALM      29.61F
HARRISBURG     CLOUDY    60  53  77 SW3       29.61F
YORK           CLOUDY    61  56  83 SW5       29.62F
$$

PAZ038>040-043-044-047-048-054-055-060>062-067>071-222000-
EASTERN PENNSYLVANIA

CITY           SKY/WX    TMP DP  RH WIND       PRES   REMARKS
SCRANTON       CLOUDY    57  47  69 SW7       29.58F
MOUNT POCONO   LGT RAIN  57  49  74 W14       29.59F
ALLENTOWN      LGT RAIN  63  48  58 SW14      29.60F
QUAKERTOWN*    CLOUDY    68  48  49 W8        29.61S
READING        LGT RAIN  60  53  77 W5        29.62S
LANCASTER      LGT RAIN  59  55  87 SW9       29.62F FOG
COATESVILLE    NOT AVBL
POTTSTOWN      LGT RAIN  64  51  62 W6        29.63R
BLUE BELL      PTSUNNY   72  46  40 W16G22    29.60R
DOYLESTOWN     LGT RAIN  70  49  47 W8        29.59S
WILLOW GROVE   NOT AVBL
NORTH PHILA    MOSUNNY   75  46  35 SW9       29.60F
PHILADELPHIA   CLOUDY    74  45  35 SW14      29.60F
$$



USA.gov is the U.S. government's official web portal to all federal, state and local government web resources and services.